[[{"header":{"parameterUnit":"m.s-1","parameterCategory":1,"la1":30.2991,"la2":30.254,"lo1":-89.0895,"lo2":-89.0444,"dy":0.0017,"dx":0.0017,"nx":28,"ny":28,"refTime":"2025-04-16T09:00:00:Z","depth":0,"parameterNumber":2,"parameterNumberName":"U-component_of_WINDS"},"data":[0,0,0,0,0,0,0,0,0,0,0,0,0,0,0,0,0,0,0,0,0,0,0,0,0,0,0,0,0,0,0,0,0,0,0,0,0,0,0,0,0,0,0,0,0,0,0,0,0,0,0,0,0,0,0,0,0,0,0.693,0.6931,0,0.6974,0.6975,0.6975,0.6985,0.6984,0.6984,0.6984,0.7027,0.7028,0.7029,0,0,0,0,0,0,0,0,0,0,0,0,0,0.6852,0.6854,0.693,0.6931,0.6932,0.6974,0.6975,0.6975,0.6985,0.6984,0.6984,0.6984,0.7026,0.7028,0.703,0,0,0,0,0,0,0,0,0,0,0,0,0,0.689,0.6854,0.693,0.6941,0.6943,0.6974,0.6975,0.6975,0.6985,0.6984,0.6984,0.6984,0.7026,0.7028,0.703,0.7052,0,0,0.7036,0.7037,0,0,0,0,0,0,0,0,0.6888,0.6893,0.6939,0.6941,0.6942,0.6974,0.6963,0.7001,0.6985,0.6969,0.6984,0.6983,0.7009,0.7013,0.7022,0.7054,0.7056,0.7037,0.7038,0.7039,0.7039,0,0,0,0,0,0,0,0.6885,0.6891,0.6948,0.694,0.6942,0.6943,0.6948,0.697,0.6991,0.697,0.6971,0.6976,0.701,0.702,0.7023,0.7057,0.7037,0.7038,0.704,0.7041,0.7108,0.7109,0,0,0,0,0,0,0.6881,0.6889,0.6946,0.6949,0.6913,0.6945,0.6951,0.6964,0.6991,0.6995,0.6977,0.6976,0.7016,0.702,0.7024,0.7052,0.7039,0.7041,0.7042,0.7108,0.7108,0.7109,0,0,0,0,0,0,0.6879,0.6886,0.6945,0.6919,0.6927,0.6947,0.6962,0.6965,0.6975,0.6996,0.6999,0.6983,0.7016,0.7021,0.7045,0.7053,0.7042,0.7044,0.7107,0.7108,0.7109,0.7106,0,0,0,0,0,0,0.6877,0.6885,0.6895,0.6919,0.6928,0.6965,0.6963,0.6966,0.6979,0.6979,0.7003,0.7006,0.7016,0.7042,0.7047,0.7056,0.7045,0.7107,0.7108,0.7108,0.7106,0.7107,0.7108,0,0,0,0,0,0.6874,0.6892,0.6895,0.6902,0.6941,0.6966,0.6971,0.6983,0.698,0.6989,0.7002,0.7005,0.7052,0.7044,0.705,0.706,0.7106,0.7107,0.7108,0.7105,0.7107,0.7108,0,0,0,0,0,0,0.6868,0.6896,0.6899,0.6926,0.6944,0.6967,0.6979,0.6984,0.7002,0.7002,0.7015,0.702,0.7043,0.7054,0.7045,0.7082,0.7079,0.7081,0.7074,0.7076,0.7077,0.7073,0.7047,0,0,0,0,0,0.687,0.6889,0.6912,0.6933,0.6942,0.6959,0.6971,0.6978,0.6996,0.7004,0.7019,0.7035,0.7054,0.7065,0.7083,0.7108,0.7112,0.7117,0.7118,0.7119,0.7121,0.7133,0.7135,0.7113,0.7113,0.7113,0,0,0.6874,0.6891,0.6902,0.6933,0.6947,0.6965,0.6965,0.6985,0.6998,0.7006,0.703,0.7041,0.7061,0.7084,0.7095,0.7094,0.7128,0.712,0.7121,0.7122,0.7134,0.7136,0.7138,0.7114,0.7113,0.7113,0,0,0.689,0.6906,0.6925,0.6939,0.6961,0.6972,0.6976,0.6999,0.7007,0.7031,0.7037,0.7053,0.7084,0.7097,0.7108,0.7128,0.7132,0.7134,0.7139,0.7151,0.7153,0.7154,0.716,0.7162,0.7136,0.7136,0.7136,0,0.6892,0.6921,0.6934,0.6953,0.6965,0.6974,0.6992,0.7005,0.7032,0.7039,0.7038,0.7077,0.7091,0.7117,0.7122,0.7131,0.7135,0.7131,0.7152,0.7153,0.7155,0.7161,0.7163,0.7136,0.7136,0.7136,0.7136,0,0.6921,0.6941,0.6953,0.6978,0.6992,0.7011,0.7026,0.7038,0.7045,0.7055,0.7078,0.7095,0.7116,0.7123,0.713,0.715,0.7148,0.7149,0.7146,0.7157,0.7163,0.7165,0.7136,0.7136,0.7136,0.7136,0,0,0.6935,0.6967,0.6971,0.6982,0.7006,0.7021,0.704,0.7061,0.707,0.7088,0.7103,0.7129,0.7129,0.7141,0.7149,0.716,0.7173,0.7159,0.7159,0.716,0.7195,0.7194,0.7196,0.7176,0.7176,0.7176,0.7193,0,0.6953,0.6987,0.6999,0.7027,0.7044,0.7052,0.7068,0.7084,0.7094,0.711,0.7121,0.7139,0.7139,0.7146,0.7157,0.7169,0.718,0.7168,0.7188,0.7189,0.7183,0.72,0.7199,0.7214,0.7195,0.7196,0.7196,0,0.6979,0.6997,0.7026,0.7047,0.7055,0.7069,0.7089,0.7104,0.7122,0.7129,0.7142,0.7149,0.7167,0.7163,0.7188,0.7179,0.7188,0.7195,0.7196,0.7198,0.7193,0.7201,0.7219,0.7221,0.72,0.72,0.7199,0,0.6984,0.7016,0.7037,0.7047,0.7072,0.7082,0.7092,0.711,0.7121,0.7138,0.7145,0.7164,0.7174,0.7188,0.7199,0.7195,0.7222,0.7219,0.7228,0.7227,0.7232,0.7232,0.7251,0.724,0.724,0.724,0.7239,0,0.7003,0.702,0.704,0.7053,0.7072,0.7085,0.7104,0.7115,0.713,0.7145,0.7153,0.7166,0.7181,0.7196,0.7204,0.7223,0.7228,0.7233,0.7235,0.7232,0.7231,0.7237,0.7236,0.724,0.724,0.724,0.724,0,0.7012,0.7026,0.705,0.7072,0.7078,0.7091,0.7109,0.7121,0.7132,0.715,0.7155,0.7172,0.719,0.7202,0.7225,0.7231,0.7251,0.7253,0.7245,0.7246,0.7253,0.7252,0.7277,0.728,0.7267,0.7267,0.7267,0,0.7022,0.7036,0.7059,0.707,0.7081,0.7098,0.711,0.7123,0.7134,0.7155,0.7165,0.7183,0.7199,0.7226,0.724,0.7257,0.726,0.7267,0.7262,0.7258,0.7259,0.7257,0.7258,0.7267,0.7268,0.7268,0.7268,0,0.7039,0.7045,0.7062,0.7081,0.7095,0.7111,0.7126,0.7134,0.715,0.7162,0.7181,0.7193,0.7216,0.7234,0.7253,0.7263,0.7267,0.7269,0.7272,0.7268,0.7263,0.7265,0.7246,0.7268,0.7268,0.7268,0.7268,0.7268,0.7049,0.7061,0.7079,0.7097,0.711,0.7124,0.7137,0.7149,0.7165,0.7185,0.7192,0.7211,0.7227,0.7252,0.7263,0.7277,0.7277,0.7281,0.7282,0.7282,0.7282,0.7261,0.7281,0.7281,0.7281,0.7281,0.7281,0,0.7065,0.7077,0.7094,0.7115,0.7129,0.7133,0.715,0.7161,0.7178,0.7193,0.7208,0.7229,0.7246,0.7261,0.7278,0.7287,0.7289,0.7291,0.729,0.7292,0.7281,0.7277,0.7289,0.7289,0.7289,0.7289,0.7289,0.7289,0.7075,0.7095,0.7103,0.7129,0.7141,0.716,0.7169,0.7182,0.7194,0.7217,0.7232,0.7241,0.7256,0.7274,0.729,0.7294,0.7299,0.73,0.7305,0.7294,0.7293,0.7292,0.7288,0.7302,0.7302,0.7314,0.7314,0.7314]},{"header":{"parameterUnit":"m.s-1","parameterCategory":1,"la1":30.2991,"la2":30.254,"lo1":-89.0895,"lo2":-89.0444,"dy":0.0017,"dx":0.0017,"nx":28,"ny":28,"refTime":"2025-04-16T09:00:00:Z","depth":0,"parameterNumber":3,"parameterNumberName":"V-component_of_WINDS"},"data":[0,0,0,0,0,0,0,0,0,0,0,0,0,0,0,0,0,0,0,0,0,0,0,0,0,0,0,0,0,0,0,0,0,0,0,0,0,0,0,0,0,0,0,0,0,0,0,0,0,0,0,0,0,0,0,0,0,0,3.2331,3.2331,0,3.2319,3.2319,3.2318,3.2258,3.2257,3.2255,3.2254,3.224,3.2241,3.2242,0,0,0,0,0,0,0,0,0,0,0,0,0,3.23,3.2301,3.2331,3.2331,3.2331,3.2319,3.2319,3.2318,3.2258,3.2256,3.2255,3.2253,3.2239,3.2241,3.2242,0,0,0,0,0,0,0,0,0,0,0,0,0,3.2303,3.2301,3.2331,3.2299,3.2296,3.2319,3.2319,3.2318,3.2259,3.2256,3.2254,3.2252,3.2239,3.224,3.2242,3.2293,0,0,3.2246,3.2247,0,0,0,0,0,0,0,0,3.2303,3.2304,3.2304,3.2302,3.2298,3.2288,3.2302,3.231,3.2259,3.2273,3.2254,3.2251,3.2257,3.2257,3.2259,3.2293,3.2292,3.2246,3.2247,3.2248,3.2248,0,0,0,0,0,0,0,3.2303,3.2305,3.2326,3.2304,3.2301,3.2285,3.2283,3.2304,3.2277,3.2272,3.2267,3.2267,3.2255,3.2258,3.2259,3.2292,3.2246,3.2248,3.2249,3.2249,3.2363,3.2365,0,0,0,0,0,0,3.2308,3.2305,3.2327,3.2326,3.2296,3.2287,3.2285,3.2293,3.2277,3.2272,3.2268,3.2264,3.2257,3.2257,3.2258,3.2314,3.2248,3.2249,3.225,3.2361,3.2364,3.2366,0,0,0,0,0,0,3.2307,3.231,3.2327,3.2314,3.2315,3.229,3.23,3.2294,3.2297,3.2274,3.2269,3.2276,3.2255,3.2256,3.2284,3.2313,3.225,3.2251,3.2359,3.2362,3.2365,3.243,0,0,0,0,0,0,3.2307,3.231,3.233,3.2315,3.2316,3.2355,3.2302,3.2295,3.23,3.2294,3.2281,3.2276,3.2254,3.2283,3.2286,3.2314,3.2252,3.2356,3.236,3.2364,3.2425,3.2435,3.2443,0,0,0,0,0,3.2306,3.235,3.2332,3.2335,3.2341,3.2357,3.2357,3.233,3.2302,3.2322,3.2307,3.2277,3.231,3.2286,3.2289,3.2318,3.2354,3.2359,3.2364,3.2421,3.2433,3.2443,0,0,0,0,0,0,3.2369,3.2347,3.2327,3.2368,3.2364,3.2346,3.237,3.2345,3.2349,3.2343,3.2309,3.2307,3.2339,3.2332,3.2306,3.2365,3.2327,3.2332,3.2369,3.238,3.2389,3.2389,3.2253,0,0,0,0,0,3.2388,3.2404,3.2383,3.2421,3.242,3.2396,3.2402,3.2381,3.2376,3.2374,3.2362,3.2358,3.2366,3.2373,3.2381,3.2424,3.2419,3.2445,3.2455,3.2462,3.2467,3.2486,3.2497,3.2382,3.2382,3.2382,0,0,3.2427,3.2417,3.2429,3.2433,3.2428,3.2444,3.2395,3.2414,3.2424,3.2377,3.2402,3.2393,3.2386,3.2421,3.2436,3.2416,3.2498,3.2469,3.2475,3.2475,3.2492,3.2503,3.2513,3.2385,3.2385,3.2384,0,0,3.2505,3.2501,3.253,3.2525,3.2518,3.2501,3.2508,3.2494,3.2485,3.251,3.2474,3.2486,3.2504,3.2499,3.2499,3.2573,3.2545,3.2577,3.2624,3.2643,3.2652,3.266,3.2683,3.2693,3.2582,3.2582,3.2582,0,3.2554,3.2577,3.2548,3.2568,3.257,3.2528,3.2556,3.2554,3.255,3.2551,3.2529,3.2548,3.254,3.2572,3.259,3.2593,3.2598,3.2577,3.2653,3.2661,3.2668,3.269,3.2699,3.2586,3.2585,3.2585,3.2585,0,3.2636,3.2652,3.2676,3.2672,3.2677,3.2701,3.2675,3.2683,3.2662,3.2647,3.2671,3.2661,3.2664,3.267,3.2651,3.2699,3.2686,3.266,3.2619,3.2683,3.2703,3.2711,3.2591,3.259,3.2589,3.2588,0,0,3.2754,3.2732,3.2741,3.2738,3.2726,3.2737,3.2759,3.2762,3.2768,3.2767,3.2782,3.2797,3.2771,3.2771,3.275,3.2767,3.2823,3.2737,3.2737,3.2751,3.2872,3.289,3.2901,3.2805,3.2806,3.2807,3.2871,0,3.2826,3.2861,3.2835,3.2875,3.2887,3.2847,3.2865,3.2859,3.2846,3.2853,3.2838,3.2848,3.2815,3.2814,3.2829,3.2813,3.2846,3.2808,3.2816,3.2817,3.2817,3.2912,3.2932,3.2993,3.2879,3.2881,3.2882,0,3.2915,3.2916,3.2957,3.294,3.2944,3.2961,3.296,3.2969,3.296,3.2949,3.2948,3.2922,3.294,3.2902,3.2925,3.29,3.2902,3.2894,3.2896,3.2894,3.2852,3.2909,3.3012,3.302,3.2894,3.2893,3.2892,0,3.2993,3.3005,3.303,3.3029,3.301,3.3023,3.3016,3.3005,3.3008,3.3007,3.3007,3.3009,3.301,3.3011,3.2985,3.296,3.301,3.2971,3.2999,3.3,3.301,3.3009,3.3111,3.3016,3.3016,3.3015,3.3015,0,3.3075,3.3101,3.3064,3.308,3.3106,3.3076,3.3103,3.3091,3.3082,3.3093,3.3059,3.307,3.3036,3.3043,3.3023,3.3044,3.3045,3.3035,3.3028,3.3036,3.3037,3.3035,3.3029,3.3018,3.3017,3.3017,3.3016,0,3.3166,3.3143,3.3167,3.3148,3.3143,3.3163,3.3146,3.3158,3.3142,3.3156,3.3157,3.3132,3.3138,3.3112,3.3115,3.3101,3.3131,3.3119,3.3133,3.3129,3.3157,3.3154,3.326,3.3271,3.3171,3.3172,3.3173,0,3.3219,3.3238,3.3219,3.3224,3.3219,3.3227,3.3229,3.3199,3.3203,3.3193,3.3206,3.3209,3.321,3.3222,3.3202,3.3203,3.3189,3.3226,3.3189,3.3195,3.3186,3.3184,3.3185,3.3233,3.3235,3.3236,3.3236,0,3.3314,3.3301,3.3305,3.3305,3.3308,3.3307,3.3303,3.3309,3.3276,3.3281,3.3287,3.3288,3.3289,3.3291,3.3288,3.3279,3.3252,3.3249,3.3254,3.3261,3.3268,3.3262,3.3151,3.3246,3.3245,3.3244,3.3244,3.3243,3.3386,3.3399,3.3387,3.3392,3.3386,3.3383,3.3392,3.3377,3.3381,3.3379,3.3362,3.337,3.3359,3.3351,3.3345,3.335,3.3332,3.3342,3.3344,3.3346,3.335,3.3269,3.335,3.3349,3.3349,3.3349,3.3349,0,3.3476,3.3466,3.3472,3.3466,3.347,3.3444,3.3438,3.3442,3.345,3.3442,3.3443,3.3448,3.345,3.3431,3.343,3.3437,3.3424,3.3438,3.3436,3.3433,3.3367,3.336,3.3448,3.3448,3.3448,3.3448,3.3448,3.3448,3.3524,3.3544,3.3529,3.3545,3.3535,3.3543,3.3541,3.3537,3.353,3.3537,3.3538,3.3526,3.3512,3.351,3.351,3.3504,3.3504,3.3521,3.351,3.3448,3.3439,3.3429,3.3423,3.3522,3.3522,3.3576,3.3576,3.3577]}]]